Location: Canet
(43.3261°N, 5.3723°E)
Time: 19:32:35
(UTC+00:00)

PSLV R/B - Pass Details

Date: 24 January 2021
Orbit: 567 x 598 km, 98.2° (Epoch: 07 March)

Event Time Altitude Azimuth Distance (km) Brightness Sun altitude
Exits shadow 18:06:24 - 16° (NNE) 2,303 6.7 -15.7°
Reaches altitude 10° 18:07:16 10° 18° (NNE) 1,947 6.3 -15.9°
Maximum altitude 18:11:30 71° 102° (ESE) 637 3.9 -16.6°
Drops below altitude 10° 18:15:40 10° 187° (S) 1,927 6.8 -17.4°
Sets 18:17:50 0° 189° (S) 2,822 7.7 -17.7°
